Tracking 17140 objects as of 30-May-2015
HD Live streaming from Space Station

SL-8 R/B

Track SL-8 R/B now!
10-day predictions
SL-8 R/B is classified as:


NORAD ID: 24306
Int'l Code: 1996-052C
Perigee: 970.9 km
Apogee: 1,007.6 km
Inclination: 82.9 °
Period: 104.7 minutes
Semi major axis: 7360 km
RCS: 5.014 m2 (large)
Launch date: September 5, 1996
Source: Commonwealth of Independent States (former USSR) (CIS)

Note: This is a ROCKET BODY
Your satellite tracking list
Your tracking list is empty





NASA's NSSDC Master Catalog

Two Line Element Set (TLE):
1 24306U 96052C   15150.51343130 -.00000020  00000-0 -37084-4 0  9999
2 24306 082.9341 175.6246 0024962 309.6819 050.2136 13.74881386939809

Source of the keplerian elements: AFSPC

N2YO: 318